Weather History for Chippewa, MI

Change the Weather History Date:

Monday, September 30, 2013

  Actual Average Record
Temperature  
Mean Temperature 54 °F -  
Max Temperature 66 °F 57 °F 76 °F (1983)
Min Temperature 42 °F 39 °F 20 °F (1993)
Degree Days  
Heating Degree Days 11    
Growing Degree Days 4 (Base 50)    
Moisture  
Dew Point 47 °F    
Average Humidity 79    
Maximum Humidity 100    
Minimum Humidity 37    
Precipitation  
Precipitation 0.00 in - - ()
Sea Level Pressure  
Sea Level Pressure 29.94 in    
Wind  
Wind Speed 4 mph (SSE)    
Max Wind Speed 13 mph    
Max Gust Speed 17 mph    
Visibility 8 miles    
Events      
Averages and records for this station are not official NWS values.
T = Trace of Precipitation, MM = Missing Value Source: NWS Daily Summary

Daily Weather History Graph

Daily Weather History Graph

Search for Another Location

Airport:

Trip Planner

Search our weather history database for the weather conditions in past years. The results will help you decide how hot, cold, wet, or windy it might be!

Date:

Astronomy

Sep. 30, 2013 Rise Set
Actual Time 7:35 AM EDT 7:19 PM EDT
Civil Twilight 7:05 AM EDT 7:49 PM EDT
Nautical Twilight 6:30 AM EDT 8:23 PM EDT
Astronomical Twilight 5:55 AM EDT 8:59 PM EDT
Moon 2:58 AM EDT (9/30) 5:00 PM EDT (9/30)
Length of Visible Light 12h 43m
Length of Day
11h 43m
Waning Crescent, 19% of the Moon is Illuminated
Sep 30
Waning Crescent
Oct 4
New
Oct 11
First Quarter
Oct 18
Full
Oct 26
Last Quarter

Hourly Weather History & Observations

Time (EDT) Temp. Windchill Dew Point Humidity Pressure Visibility Wind Dir Wind Speed Gust Speed Precip Events Conditions
12:15 AM 51.8 °F - 51.8 °F 100% 30.00 in 10.0 mi Calm Calm - N/A   Clear
12:35 AM 48.2 °F - 48.2 °F 100% 30.00 in 1.8 mi Calm Calm - N/A   Clear
12:55 AM 46.4 °F 45.2 °F 46.4 °F 100% 30.00 in 1.0 mi South 3.5 mph - N/A   Clear
1:15 AM 46.4 °F - 46.4 °F 100% 30.01 in 0.8 mi Calm Calm - N/A   Unknown
1:35 AM 46.4 °F - 46.4 °F 100% 30.00 in 10.0 mi Calm Calm - N/A   Clear
1:55 AM 46.4 °F - 44.6 °F 93% 30.01 in 1.2 mi Calm Calm - N/A   Clear
2:15 AM 46.4 °F - 44.6 °F 93% 30.00 in 10.0 mi Calm Calm - N/A   Clear
2:35 AM 44.6 °F 43.1 °F 44.6 °F 100% 30.00 in 10.0 mi SE 3.5 mph - N/A   Clear
2:55 AM 46.4 °F 45.2 °F 44.6 °F 93% 30.00 in 3.0 mi SE 3.5 mph - N/A   Clear
3:15 AM 44.6 °F 43.1 °F 42.8 °F 93% 30.00 in 10.0 mi SE 3.5 mph - N/A   Clear
3:35 AM 44.6 °F 43.1 °F 44.6 °F 100% 29.99 in 6.0 mi SE 3.5 mph - N/A   Clear
3:55 AM 46.4 °F - 44.6 °F 93% 29.99 in 0.5 mi Calm Calm - N/A   Unknown
4:15 AM 46.4 °F - 44.6 °F 93% 29.99 in 4.0 mi Calm Calm - N/A   Clear
4:35 AM 46.4 °F - 44.6 °F 93% 29.99 in 10.0 mi Calm Calm - N/A   Clear
4:55 AM 44.6 °F - 44.6 °F 100% 29.99 in 8.0 mi Calm Calm - N/A   Clear
5:15 AM 44.6 °F - 42.8 °F 93% 29.99 in 10.0 mi Calm Calm - N/A   Clear
5:35 AM 44.6 °F - 44.6 °F 100% 29.99 in 10.0 mi Calm Calm - N/A   Partly Cloudy
5:55 AM 44.6 °F - 44.6 °F 100% 30.00 in 5.0 mi Calm Calm - N/A   Mostly Cloudy
6:15 AM 42.8 °F - 42.8 °F 100% 29.99 in 0.5 mi Calm Calm - N/A   Overcast
6:35 AM 42.8 °F 41.1 °F 42.8 °F 100% 30.00 in 0.8 mi SE 3.5 mph - N/A   Overcast
6:55 AM 42.8 °F 41.1 °F 42.8 °F 100% 30.00 in 0.5 mi SE 3.5 mph - N/A   Overcast
7:15 AM 42.8 °F 41.1 °F 42.8 °F 100% 29.99 in 0.5 mi SE 3.5 mph - N/A   Overcast
7:35 AM 42.8 °F 41.1 °F 42.8 °F 100% 29.99 in 0.2 mi SE 3.5 mph - N/A   Overcast
7:55 AM 42.8 °F 40.1 °F 42.8 °F 100% 29.99 in 0.2 mi SSE 4.6 mph - N/A   Overcast
8:15 AM 42.8 °F 40.1 °F 42.8 °F 100% 29.98 in 0.5 mi SE 4.6 mph - N/A   Overcast
8:35 AM 48.2 °F - 48.2 °F 100% 29.98 in 5.0 mi SSE 3.5 mph - N/A   Partly Cloudy
8:55 AM 48.2 °F - 48.2 °F 100% 29.98 in 10.0 mi Calm Calm - N/A   Clear
9:15 AM 48.2 °F - 48.2 °F 100% 29.97 in 4.0 mi SE 3.5 mph - N/A   Scattered Clouds
9:35 AM 51.8 °F - 51.8 °F 100% 29.98 in 10.0 mi SE 6.9 mph - N/A   Partly Cloudy
9:55 AM 53.6 °F - 51.8 °F 94% 29.97 in 10.0 mi SE 6.9 mph - N/A   Clear
10:15 AM 53.6 °F - 51.8 °F 94% 29.96 in 10.0 mi SE 10.4 mph - N/A   Clear
10:35 AM 55.4 °F - 51.8 °F 88% 29.96 in 10.0 mi SE 9.2 mph - N/A   Clear
10:55 AM 57.2 °F - 51.8 °F 82% 29.96 in 10.0 mi SSE 5.8 mph - N/A   Clear
11:15 AM 59.0 °F - 51.8 °F 77% 29.95 in 10.0 mi SSE 8.1 mph - N/A   Clear
11:35 AM 60.8 °F - 51.8 °F 72% 29.95 in 10.0 mi SSE 8.1 mph - N/A   Clear
11:55 AM 62.6 °F - 48.2 °F 59% 29.95 in 10.0 mi South 9.2 mph - N/A   Clear
12:15 PM 62.6 °F - 46.4 °F 55% 29.95 in 10.0 mi South 6.9 mph - N/A   Clear
12:35 PM 64.4 °F - 46.4 °F 52% 29.95 in 10.0 mi South 9.2 mph - N/A   Clear
12:55 PM 62.6 °F - 44.6 °F 52% 29.95 in 10.0 mi South 8.1 mph - N/A   Clear
1:15 PM 62.6 °F - 44.6 °F 52% 29.94 in 10.0 mi South 6.9 mph - N/A   Clear
1:35 PM 64.4 °F - 42.8 °F 45% 29.93 in 10.0 mi South 12.7 mph 17.3 mph N/A   Clear
1:55 PM 66.2 °F - 42.8 °F 43% 29.92 in 10.0 mi SSE 12.7 mph 16.1 mph N/A   Clear
2:15 PM 64.4 °F - 41.0 °F 42% 29.92 in 10.0 mi SSW 9.2 mph - N/A   Clear
2:35 PM 66.2 °F - 42.8 °F 43% 29.91 in 10.0 mi South 8.1 mph - N/A   Clear
2:55 PM 66.2 °F - 42.8 °F 43% 29.91 in 10.0 mi SSW 8.1 mph - N/A   Clear
3:15 PM 66.2 °F - 41.0 °F 40% 29.91 in 10.0 mi SSW 8.1 mph - N/A   Clear
3:35 PM 66.2 °F - 41.0 °F 40% 29.90 in 10.0 mi South 9.2 mph 16.1 mph N/A   Clear
3:55 PM 66.2 °F - 39.2 °F 37% 29.89 in 10.0 mi South 10.4 mph - N/A   Clear
4:15 PM 66.2 °F - 41.0 °F 40% 29.88 in 10.0 mi South 10.4 mph - N/A   Clear
4:35 PM 66.2 °F - 42.8 °F 43% 29.88 in 10.0 mi SSW 5.8 mph - N/A   Clear
4:55 PM 66.2 °F - 42.8 °F 43% 29.87 in 10.0 mi South 8.1 mph - N/A   Clear
5:15 PM 64.4 °F - 44.6 °F 49% 29.87 in 10.0 mi South 6.9 mph - N/A   Clear
5:35 PM 64.4 °F - 44.6 °F 49% 29.87 in 10.0 mi SSE 8.1 mph - N/A   Clear
5:55 PM 64.4 °F - 46.4 °F 52% 29.87 in 10.0 mi SSE 8.1 mph - N/A   Clear
6:15 PM 62.6 °F - 46.4 °F 55% 29.87 in 10.0 mi South 6.9 mph - N/A   Clear
6:35 PM 60.8 °F - 46.4 °F 59% 29.87 in 10.0 mi SSE 6.9 mph - N/A   Clear
6:55 PM 59.0 °F - 46.4 °F 63% 29.88 in 10.0 mi SSE 6.9 mph - N/A   Clear
7:15 PM 57.2 °F - 48.2 °F 72% 29.88 in 10.0 mi SSE 5.8 mph - N/A   Clear
7:35 PM 57.2 °F - 48.2 °F 72% 29.88 in 10.0 mi SSE 6.9 mph - N/A   Clear
7:55 PM 57.2 °F - 48.2 °F 72% 29.87 in 10.0 mi SSE 8.1 mph - N/A   Clear
8:15 PM 55.4 °F - 50.0 °F 82% 29.87 in 10.0 mi SE 9.2 mph - N/A   Clear
8:35 PM 55.4 °F - 50.0 °F 82% 29.87 in 10.0 mi SSE 6.9 mph - N/A   Clear
8:55 PM 53.6 °F - 51.8 °F 94% 29.87 in 10.0 mi SSE 8.1 mph - N/A   Clear
9:15 PM 53.6 °F - 51.8 °F 94% 29.87 in 10.0 mi SSE 8.1 mph - N/A   Clear
9:35 PM 55.4 °F - 51.8 °F 88% 29.86 in 10.0 mi SE 11.5 mph - N/A   Clear
9:55 PM 55.4 °F - 51.8 °F 88% 29.86 in 10.0 mi SE 9.2 mph - N/A   Clear
10:15 PM 55.4 °F - 51.8 °F 88% 29.87 in 10.0 mi SE 8.1 mph - N/A   Clear
10:35 PM 55.4 °F - 53.6 °F 94% 29.86 in 10.0 mi SE 10.4 mph - N/A   Clear
10:55 PM 55.4 °F - 53.6 °F 94% 29.85 in 10.0 mi SE 10.4 mph - N/A   Clear
11:15 PM 55.4 °F - 53.6 °F 94% 29.85 in 10.0 mi SE 9.2 mph - N/A   Clear
11:35 PM 55.4 °F - 53.6 °F 94% 29.86 in 10.0 mi SE 8.1 mph - N/A   Clear
11:55 PM 53.6 °F - 51.8 °F 94% 29.86 in 10.0 mi SE 8.1 mph - N/A   Clear